Wind_Speed
24 23 22 22 21 22 24 25 26 27 28 28 29 29 29 29 29 29 30 30 30 30 31 31 32 32 33 33 32 31 30 29 28 28 27 27 27 27 27 27 27 27 26 26 26 26 26 26 26 26 26 26 26 26 26 26 26 26 26 26 26 27 27 27 27 28 28 28 29 29 30 30 31 32 32 33 33 34 35 35 36 36 37 37 38 38
23 23 22 23 22 22 23 23 24 25 27 28 28 29 29 29 30 30 30 30 31 31 32 32 33 34 34 35 35 34 33 32 31 30 29 28 27 27 27 27 27 27 27 26 26 26 26 26 26 26 26 26 26 26 26 26 26 26 26 26 26 27 27 27 27 28 28 28 29 29 30 31 31 32 32 33 33 34 35 35 36 36 37 37 37 38
21 22 22 23 23 23 23 23 23 24 25 26 27 28 29 30 31 31 31 31 31 32 33 33 34 34 35 36 36 36 35 34 33 31 30 29 28 28 28 28 27 27 27 26 26 26 26 26 26 26 26 26 26 26 27 27 26 26 26 26 26 27 27 27 27 27 27 28 28 29 30 31 31 32 33 33 34 34 35 35 36 36 36 37 37 38
22 21 22 22 23 24 24 24 24 24 25 26 27 27 28 29 30 31 31 31 32 32 33 34 34 35 36 36 37 37 36 35 33 31 30 29 29 28 28 28 27 27 27 26 26 26 26 26 26 26 27 27 27 27 27 27 26 26 26 26 27 27 27 27 27 27 27 28 29 29 30 31 31 32 33 33 34 34 35 35 36 36 36 37 37 38
23 23 22 21 22 23 24 24 24 24 25 26 27 27 28 29 30 30 30 31 32 32 33 34 34 35 35 36 36 36 35 34 32 31 30 29 29 28 28 28 27 27 27 26 26 26 27 27 27 27 27 27 27 27 27 26 26 26 26 26 27 26 26 26 27 27 28 28 29 29 30 31 31 32 32 33 33 34 34 35 35 36 36 37 37 38
24 24 23 22 22 22 22 22 23 23 24 25 26 27 28 29 29 29 28 29 30 31 32 32 33 33 34 34 35 35 34 33 31 30 29 29 28 28 28 27 27 27 27 27 27 27 27 27 27 27 27 27 27 27 26 26 26 26 26 26 26 26 26 26 27 27 28 29 29 29 30 30 31 32 32 33 33 34 34 35 35 36 36 37 37 38
23 23 23 23 22 22 21 21 21 22 23 23 24 26 27 27 28 28 29 29 29 29 29 29 30 31 31 32 33 33 32 31 30 29 29 28 28 28 27 27 27 27 27 27 27 27 27 27 28 28 27 27 27 26 26 26 26 26 26 26 26 26 26 27 27 28 28 29 29 29 30 30 31 31 32 32 33 33 34 34 35 35 36 36 37 38
22 22 22 22 21 21 20 20 21 22 23 23 22 23 24 24 25 27 28 28 28 28 27 27 27 28 29 30 31 31 30 30 30 30 29 29 28 28 27 27 27 27 27 27 27 28 28 28 27 27 27 27 27 26 26 26 27 26 26 26 26 26 26 27 27 28 28 29 29 29 30 30 31 31 32 32 33 33 34 34 35 35 36 36 37 38
22 21 21 21 21 19 19 20 21 22 23 23 23 22 22 22 22 23 24 25 26 26 25 25 25 26 28 29 29 29 29 29 30 30 30 30 30 29 28 27 27 26 27 27 27 27 27 27 27 27 27 27 26 27 27 27 26 26 26 25 25 26 26 27 27 28 28 29 29 29 29 30 30 31 31 32 32 33 34 34 35 35 36 36 37 38
23 22 21 21 21 21 20 19 20 22 23 24 24 24 22 21 21 21 21 22 23 23 24 24 24 24 26 27 27 27 27 28 28 29 28 29 29 28 27 27 26 26 26 25 25 26 26 26 26 26 26 26 26 27 27 26 26 26 25 25 25 26 26 27 27 28 28 28 29 29 29 30 30 31 31 32 32 33 34 34 35 35 36 37 38 38
23 23 21 21 21 22 22 21 20 20 21 23 24 24 24 23 22 20 19 20 20 21 22 23 24 24 23 24 24 25 25 26 27 27 27 27 27 26 25 25 25 25 25 25 25 25 25 26 26 26 26 27 27 27 27 26 26 25 25 25 25 26 26 27 27 28 28 28 28 29 29 29 30 31 31 32 33 33 34 35 35 36 36 37 38 39
21 21 21 20 20 20 21 22 21 19 19 19 20 21 23 24 24 22 20 20 20 20 21 22 23 24 23 23 22 22 23 24 25 25 26 26 26 26 25 25 25 25 25 25 25 25 25 26 26 26 26 27 27 27 26 26 25 25 25 25 25 26 26 27 27 28 28 28 28 28 29 29 30 31 31 32 33 34 34 35 36 36 37 37 38 39
21 20 20 20 19 19 19 19 19 18 19 18 18 18 20 22 23 23 22 22 21 20 20 20 21 22 24 24 23 22 22 23 23 24 24 24 25 26 25 25 26 26 26 26 26 27 27 26 26 26 26 26 26 26 26 25 25 25 25 25 26 26 27 27 28 28 28 28 28 28 29 30 30 31 32 32 33 34 35 35 36 36 37 38 39 39
19 19 18 18 18 19 19 18 18 18 19 20 20 21 21 21 21 22 22 22 22 21 20 19 20 21 22 23 23 23 22 22 22 22 23 23 24 25 25 26 26 27 27 27 28 29 29 28 28 27 27 26 26 26 26 26 26 26 26 26 26 27 27 27 28 28 28 28 28 28 29 30 31 31 32 33 33 34 35 36 36 37 37 38 39 39
18 17 15 15 16 18 19 19 19 19 21 21 21 20 21 20 20 21 20 20 21 20 19 19 19 20 21 22 23 24 23 23 22 21 22 23 24 25 25 25 26 27 27 27 28 30 30 29 29 29 29 29 28 28 28 27 27 26 26 26 27 27 27 28 27 27 28 28 28 29 29 30 31 31 32 33 34 34 35 36 36 37 37 38 38 39
19 17 14 14 16 18 20 20 20 20 20 21 20 20 19 19 20 21 20 20 19 18 16 16 15 16 19 21 23 23 24 24 23 22 22 23 24 25 25 25 26 26 27 27 28 29 29 29 29 30 30 30 30 29 28 27 27 27 27 27 27 27 28 28 28 28 28 28 28 29 29 30 31 32 32 33 34 35 35 36 36 37 37 38 38 39
19 18 17 16 17 18 21 21 21 20 20 20 20 20 20 20 20 20 20 19 18 16 15 13 8 5 10 16 20 22 23 24 23 22 22 22 24 25 25 25 26 26 27 27 28 28 28 28 29 29 30 30 29 28 28 27 27 27 27 27 27 27 28 28 28 28 28 28 28 29 30 30 31 32 33 33 34 35 35 36 37 37 38 38 38 39
20 19 19 18 18 19 20 20 20 20 19 19 19 20 21 21 20 20 20 19 18 16 15 14 10 6 4 8 13 17 20 22 23 22 21 22 23 24 24 25 26 26 27 27 27 27 27 28 28 29 29 29 28 28 27 27 27 27 27 27 27 28 28 28 28 28 28 28 29 29 30 30 31 32 33 33 34 35 35 36 37 37 38 38 39 39
20 21 20 19 20 20 20 20 20 20 19 19 19 19 19 20 21 20 20 19 19 17 16 14 14 13 12 12 13 14 15 18 21 21 20 20 21 22 22 23 24 26 26 27 27 27 27 27 28 28 28 28 28 27 27 27 27 27 27 27 28 28 28 28 28 28 28 29 29 29 30 31 31 32 33 34 34 35 35 36 37 37 38 39 39 40
22 22 23 22 21 20 20 21 21 21 20 20 19 19 19 20 20 20 20 20 20 19 18 17 16 16 17 18 17 15 14 15 17 19 18 18 19 19 20 21 22 24 25 26 26 26 27 28 28 29 29 29 28 28 28 28 28 28 28 28 28 28 28 28 28 28 29 29 29 30 30 31 32 32 33 34 34 35 36 36 37 38 38 39 40 40
25 25 26 24 22 21 21 22 22 22 22 21 20 20 20 20 20 20 20 20 20 19 19 18 19 20 20 19 19 18 16 16 17 17 16 16 17 18 19 20 21 23 24 26 26 27 27 28 29 30 30 30 29 29 28 28 28 28 28 28 28 28 28 28 29 29 29 29 30 30 31 31 32 32 33 34 35 35 36 36 37 38 39 39 40 40
28 28 27 26 25 25 24 24 23 23 23 23 22 21 20 20 20 21 21 21 20 20 20 20 21 22 22 21 21 20 19 18 18 17 14 14 16 19 19 19 21 22 24 25 26 26 26 27 29 30 30 30 29 29 28 28 28 28 28 28 28 28 28 29 29 29 29 29 30 30 31 31 32 33 33 34 35 35 36 37 37 38 38 39 40 40
31 31 29 28 27 27 27 26 25 25 25 25 25 25 25 24 23 23 23 23 22 22 22 23 22 22 22 22 22 21 21 21 21 19 16 11 14 19 19 19 20 22 24 25 25 25 26 27 28 29 30 30 29 28 28 28 28 28 28 28 28 28 29 29 29 29 29 30 30 30 31 32 32 33 33 34 35 36 36 37 37 38 38 39 40 40
33 32 30 29 29 29 29 27 27 26 27 28 29 29 29 28 27 26 24 23 23 22 21 20 19 19 20 21 22 22 23 23 22 20 17 15 17 19 20 20 20 22 24 25 25 25 25 27 28 29 29 29 29 28 28 28 28 28 28 28 29 29 29 29 29 29 29 30 30 30 31 32 32 33 34 34 35 36 36 37 37 38 38 39 40 40
33 32 31 30 30 30 30 29 28 28 29 30 31 31 31 30 28 26 24 23 21 19 18 16 15 16 18 19 20 21 23 23 23 21 19 17 19 21 21 21 21 22 24 25 25 25 25 26 28 28 29 29 29 28 28 28 28 28 28 29 29 29 29 29 29 29 29 29 30 30 31 32 33 34 34 35 35 36 36 36 37 38 38 39 40 40
31 32 33 32 32 31 31 31 30 30 31 31 32 32 30 29 26 23 21 19 18 17 15 14 13 14 18 18 19 20 21 22 23 23 22 19 18 20 21 21 21 22 23 24 24 24 25 26 27 27 28 28 29 28 28 28 28 28 28 29 29 29 29 29 29 29 29 29 29 30 31 32 33 34 35 35 35 35 36 36 37 37 38 39 39 40
28 30 32 33 33 33 33 33 32 32 32 31 32 32 31 28 24 20 19 19 18 17 15 11 9 11 15 15 17 19 21 21 22 24 24 21 19 18 20 21 21 21 22 23 23 24 24 24 25 26 27 27 28 28 28 28 28 28 28 28 28 28 28 28 28 28 28 28 29 30 31 32 33 34 35 35 35 35 36 36 37 37 38 38 38 37
29 28 28 30 32 34 35 35 34 34 33 32 31 30 30 28 24 21 22 22 21 19 16 11 9 8 8 12 16 20 21 21 21 23 24 21 18 17 20 20 20 20 20 21 22 23 23 24 24 25 26 27 28 28 29 29 28 28 28 28 28 27 27 27 27 27 28 28 29 30 32 33 33 34 35 35 35 35 36 36 36 37 37 36 35 34
33 31 29 28 29 31 33 35 36 36 35 34 33 32 30 29 26 24 24 24 21 19 17 16 14 12 10 14 17 19 20 20 21 22 23 20 17 18 20 19 19 19 18 17 18 20 21 22 23 24 26 27 27 28 29 28 28 27 27 26 26 26 26 26 26 27 28 29 30 31 32 33 33 34 34 35 35 35 35 35 36 35 35 34 33 33
31 31 31 29 27 26 27 30 33 35 36 36 35 34 33 32 31 29 28 25 22 19 18 18 17 16 15 13 12 11 15 19 21 22 22 19 16 17 19 18 18 18 16 13 10 10 14 19 21 22 23 24 25 26 26 26 26 26 25 25 25 25 25 26 26 27 28 29 30 31 31 32 33 33 34 34 34 35 35 35 34 34 33 32 32 32
27 28 28 29 29 27 25 24 26 30 33 36 37 37 35 35 33 32 30 26 24 22 21 20 19 18 17 9 5 4 6 16 21 22 22 20 17 17 18 17 17 18 17 13 5 1 6 11 15 18 18 20 21 22 23 23 23 24 24 24 25 25 26 26 26 27 27 28 29 30 31 31 32 33 33 34 34 34 34 34 33 32 31 31 31 31
25 26 26 27 28 28 26 24 23 24 27 31 34 36 36 35 33 32 31 29 27 26 24 23 22 21 20 14 10 7 6 13 18 20 22 20 18 18 18 17 16 17 18 18 13 7 4 4 10 16 16 18 19 20 21 22 22 23 23 24 25 26 26 25 25 26 26 27 28 29 30 31 32 32 33 33 33 34 33 33 32 31 30 30 30 31
24 24 24 25 25 26 27 26 24 23 23 25 28 31 33 33 31 30 30 31 30 28 26 25 24 22 21 21 19 17 16 16 16 18 20 19 17 16 17 17 16 16 17 18 18 16 12 10 13 18 19 20 20 21 22 22 23 23 24 24 25 26 26 26 25 25 26 27 27 28 29 30 31 32 32 33 33 33 33 32 31 30 29 29 30 30
23 23 23 23 23 24 25 25 25 25 24 24 24 26 27 28 28 27 26 27 28 28 28 25 23 22 20 18 18 19 19 19 18 17 18 19 17 15 16 17 16 16 15 15 17 17 17 18 18 18 18 21 22 22 22 23 23 23 24 25 26 26 27 26 26 26 26 26 27 28 29 30 31 31 31 32 32 31 31 31 31 30 30 30 30 31
20 21 21 21 21 22 23 24 24 25 25 25 24 24 24 25 25 24 23 22 22 24 25 25 24 22 20 17 15 16 17 20 20 19 18 19 19 17 17 18 18 17 15 15 15 14 14 17 19 18 17 19 21 22 22 22 22 23 24 25 26 26 27 26 26 26 26 26 27 28 29 30 30 31 31 31 31 31 31 31 32 32 32 32 31 31
19 19 20 20 20 20 21 21 22 23 24 24 25 25 25 25 25 25 24 23 22 22 22 23 24 24 23 21 19 18 19 20 21 20 20 20 20 19 18 19 20 20 18 17 16 14 13 14 18 20 19 17 17 20 22 22 22 23 24 24 25 25 26 26 25 25 26 26 27 28 29 29 30 30 30 31 31 31 32 33 33 33 32 32 32 31
18 19 19 19 19 20 20 20 21 21 22 23 24 25 26 27 28 28 28 28 28 26 25 25 25 26 26 26 26 25 25 24 23 22 22 22 22 21 21 20 21 21 20 18 17 16 15 13 14 17 17 16 15 17 21 22 22 22 23 23 24 24 25 25 25 25 25 26 28 29 29 29 29 30 30 31 31 32 32 32 32 31 31 31 31 31
18 19 19 20 20 20 21 21 22 22 22 23 24 25 26 28 29 30 30 31 31 30 29 28 27 28 28 29 29 29 29 28 27 25 24 23 23 23 23 23 23 23 22 21 20 18 17 11 9 8 9 14 19 21 22 22 22 22 23 24 24 24 24 25 25 25 26 27 27 28 28 29 29 29 30 31 31 31 31 31 31 30 29 30 31 31
19 19 20 20 21 21 21 21 22 22 22 23 24 25 26 27 29 29 30 30 30 30 29 28 28 27 28 28 28 28 28 27 27 27 26 25 25 25 25 24 24 24 24 23 22 21 19 15 11 7 5 11 17 21 23 23 22 23 23 24 25 25 25 25 24 24 25 26 26 27 28 28 29 29 30 30 30 30 30 30 30 30 29 29 30 31
19 19 20 21 21 22 22 22 22 22 23 23 23 24 24 24 25 26 27 27 27 27 27 27 26 26 26 26 26 26 26 26 26 25 26 26 26 26 25 25 24 24 24 23 23 22 22 20 19 19 19 16 16 19 21 23 23 23 24 22 22 24 24 23 23 23 24 25 26 27 28 29 29 29 30 30 29 29 30 30 30 30 29 29 29 30
19 19 20 21 21 22 22 22 22 22 23 23 22 22 22 21 21 22 22 23 23 23 23 24 24 24 24 25 25 25 25 25 25 25 26 26 27 27 27 26 25 25 24 23 23 23 23 22 22 22 22 21 21 22 23 25 26 26 25 23 23 24 25 24 24 24 24 25 26 27 28 29 29 29 29 29 29 30 30 30 30 30 30 29 29 29
20 20 21 21 22 22 22 22 21 21 22 21 21 21 21 21 20 19 19 19 20 20 20 20 20 20 20 22 23 24 25 25 26 26 26 27 28 28 28 27 26 25 24 24 24 24 24 23 23 22 21 21 20 20 22 26 27 27 26 25 25 26 26 26 25 24 24 25 26 27 27 28 28 29 29 30 31 31 31 30 30 30 30 30 30 30
22 22 22 22 22 22 21 20 20 20 20 20 21 21 22 21 21 20 19 19 19 19 19 19 19 18 17 18 20 22 23 24 25 26 26 27 28 28 29 29 28 27 25 24 23 24 24 24 24 23 23 22 21 21 22 25 27 27 26 26 24 22 19 22 24 23 23 24 25 26 27 27 28 29 30 30 31 31 31 31 31 30 30 30 30 30
22 23 23 22 22 21 20 20 20 20 20 20 21 21 22 22 22 21 20 19 19 20 19 19 18 17 16 17 18 19 20 22 23 24 24 25 26 27 28 29 30 30 29 26 24 23 24 24 25 25 25 24 23 23 23 24 25 26 25 25 24 22 21 22 23 24 24 25 26 26 27 28 29 29 30 31 31 31 31 31 31 31 30 30 30 30
22 22 22 21 20 20 20 20 21 21 21 21 21 21 22 22 22 21 20 20 19 19 19 18 16 14 14 15 16 17 17 18 19 21 22 23 24 25 26 27 29 30 30 29 28 25 24 23 25 26 25 25 25 25 25 25 25 25 26 25 25 24 25 26 26 25 24 26 27 28 29 29 29 29 30 30 31 31 31 31 31 31 30 30 29 30
20 21 21 21 20 20 21 21 21 21 21 21 21 21 21 22 22 22 22 21 20 19 19 19 17 14 12 13 14 15 14 15 16 18 19 20 21 22 23 25 26 27 28 28 29 28 27 26 26 25 24 24 25 25 26 26 25 24 25 25 25 25 25 26 26 26 25 26 27 28 29 29 28 28 28 29 30 31 31 31 31 30 30 30 30 30
20 20 20 21 21 21 21 21 21 21 20 21 21 21 21 22 22 22 22 21 20 19 18 18 17 16 15 14 14 13 13 14 15 16 16 17 18 20 21 22 24 25 25 26 27 27 28 28 28 26 24 22 22 23 26 26 25 24 24 24 24 24 24 25 27 27 27 27 27 28 29 28 27 27 28 29 30 31 31 31 31 30 30 29 30 31
20 21 21 21 21 20 20 20 20 20 20 20 20 21 21 21 22 22 21 21 21 19 17 16 16 15 15 15 15 15 15 15 15 16 16 16 16 17 18 19 21 22 23 24 25 26 27 28 29 28 26 24 22 22 24 25 25 25 24 24 23 23 24 26 27 27 26 27 28 29 28 27 26 26 27 27 28 29 31 31 31 31 30 29 30 30
21 21 21 21 20 19 18 19 19 19 20 20 20 20 20 21 22 22 21 21 20 19 17 15 15 14 14 14 15 16 16 16 16 16 16 16 15 15 15 16 17 18 20 21 23 24 26 28 29 30 30 28 26 25 25 25 26 25 25 25 24 24 25 26 27 26 25 26 27 28 28 28 28 27 26 25 25 27 30 32 33 33 32 30 29 30
21 21 20 19 18 18 18 18 18 19 20 20 20 20 20 20 20 21 20 20 19 18 17 16 15 14 13 14 15 16 16 16 16 16 16 16 15 15 15 15 15 16 16 18 19 20 21 23 25 28 30 31 30 28 26 26 26 25 25 25 25 26 26 26 26 26 26 26 26 27 28 28 28 27 25 24 24 26 29 31 33 34 33 31 29 30
19 19 19 18 18 17 18 18 19 19 20 20 21 20 19 19 19 19 19 18 18 17 17 17 16 15 14 14 15 16 16 15 15 15 16 16 15 15 15 15 15 15 14 13 13 13 12 12 15 20 25 28 30 29 29 27 25 23 23 25 26 25 24 25 25 26 25 25 25 26 27 27 26 25 23 22 22 23 25 28 31 33 34 32 31 31
Wind_Direction
247 248 248 247 245 242 239 237 236 236 239 240 241 242 243 244 244 243 242 241 240 239 238 238 238 239 240 241 243 245 248 252 255 257 258 258 258 257 258 258 258 258 258 258 258 258 258 258 259 259 260 261 262 263 264 265 267 268 270 273 276 278 280 281 281 282 282 283 284 284 285 285 286 286 286 286 286 286 286 286 286 287 287 286 286 286
245 245 245 244 243 242 241 239 237 236 237 238 240 240 241 241 241 240 239 237 236 235 235 235 237 238 240 243 246 249 252 255 257 258 258 257 257 257 258 258 257 257 257 258 258 257 257 257 258 259 259 260 261 262 263 265 266 268 271 274 276 278 279 280 280 281 281 282 283 284 285 285 286 286 286 286 286 286 286 286 286 286 286 286 286 286
244 243 242 241 240 238 238 239 238 237 237 238 238 239 239 239 239 237 236 234 234 234 234 235 237 239 242 245 248 252 255 257 258 258 258 257 257 257 257 257 257 257 257 257 257 257 257 257 257 258 259 259 260 261 263 264 266 269 271 274 276 277 278 278 279 280 281 282 283 284 284 285 285 286 286 286 286 286 286 286 286 286 286 286 286 286
243 242 240 239 238 237 237 237 237 237 238 238 238 238 238 238 237 237 236 235 235 235 236 238 240 242 245 249 252 255 257 258 258 258 257 257 256 257 257 257 256 256 256 256 256 256 256 256 257 257 258 259 260 261 262 264 266 269 271 273 274 276 277 278 279 280 281 282 283 284 284 284 285 285 285 285 285 285 285 285 285 286 286 286 286 286
242 241 241 239 237 237 237 236 235 236 237 238 238 238 238 237 237 237 238 238 238 239 240 242 244 246 249 252 254 256 258 259 258 258 257 257 256 256 256 256 256 255 255 255 255 255 255 256 256 257 257 259 260 261 263 264 267 269 271 272 274 275 276 278 279 280 281 282 283 283 284 284 284 284 284 284 285 285 285 285 285 285 286 286 286 286
242 241 240 239 238 238 237 235 233 233 235 236 237 238 238 238 239 239 239 240 241 242 244 245 247 249 251 253 255 257 258 259 258 258 257 257 256 256 255 255 255 254 254 254 254 254 255 255 256 257 258 259 260 261 263 265 266 268 270 271 273 274 276 277 279 280 281 282 282 283 283 283 283 283 283 284 284 284 285 285 285 285 285 285 285 285
243 241 239 238 238 238 237 235 232 230 230 233 236 238 239 240 241 241 240 241 242 243 244 246 248 250 252 253 255 257 258 258 257 257 256 256 255 255 255 255 254 254 253 253 254 254 255 255 256 257 258 259 260 261 263 264 266 267 269 270 272 274 276 278 279 280 281 282 282 282 282 282 283 283 283 283 283 284 284 284 284 284 284 284 285 285
243 241 237 236 237 238 237 234 232 229 228 230 233 236 239 240 242 242 243 243 243 243 244 246 248 249 251 252 253 254 255 255 256 255 255 254 254 253 253 253 253 253 253 253 253 254 255 256 257 258 258 259 260 261 262 263 265 266 268 269 271 274 276 278 279 280 281 281 282 282 282 282 282 283 283 283 283 283 283 283 283 284 284 284 285 285
240 240 237 235 234 235 236 236 233 230 228 229 231 234 236 239 240 242 243 243 242 242 242 243 245 248 249 250 251 251 252 252 254 254 255 255 255 254 252 252 251 250 251 252 253 254 255 256 256 257 258 258 259 260 261 263 264 266 267 269 271 273 276 277 279 280 280 281 281 282 282 282 282 282 283 283 283 283 283 283 283 284 284 285 285 285
237 238 239 237 235 233 234 236 235 232 230 230 232 234 235 236 238 240 241 241 240 240 240 240 242 245 248 249 249 249 249 250 252 253 254 255 256 256 256 254 252 250 250 251 252 253 254 254 256 257 257 258 259 260 261 262 264 265 267 268 271 273 275 277 278 279 280 281 281 281 282 282 282 282 282 283 283 283 283 283 284 284 285 285 285 285
237 237 238 238 237 235 234 235 235 233 231 231 233 234 235 234 235 237 239 240 240 239 238 239 240 242 244 247 248 248 247 248 250 251 251 252 253 254 255 254 253 252 250 251 251 252 253 254 255 256 257 258 259 260 261 262 263 264 266 268 270 272 274 276 278 279 280 280 281 281 281 282 282 282 282 283 283 283 284 284 284 284 285 285 285 285
236 236 236 236 236 235 235 235 235 232 229 227 230 233 234 234 233 234 237 240 241 239 238 239 241 241 242 244 246 246 245 245 246 248 250 250 250 250 249 249 249 249 249 250 250 251 252 254 256 257 258 259 260 260 260 261 262 263 265 267 270 272 274 276 277 278 279 279 280 281 281 282 282 282 283 283 284 284 284 284 284 285 285 285 285 285
234 234 234 234 233 232 231 231 230 228 226 222 223 227 231 232 232 233 236 240 241 240 239 241 243 243 243 243 243 243 243 243 245 246 247 248 248 248 248 247 247 247 246 247 248 249 251 253 256 257 258 259 259 259 259 259 260 262 264 267 269 272 274 275 276 277 278 279 280 281 281 282 282 283 283 284 284 285 285 285 285 285 285 286 286 286
232 231 230 230 230 230 227 225 225 225 224 223 223 226 230 231 230 230 234 238 241 241 241 242 244 246 245 244 243 242 241 242 244 245 245 245 246 247 247 247 247 247 247 247 248 250 251 253 255 256 256 256 255 255 256 257 259 261 264 267 269 272 273 274 276 277 277 279 280 281 282 283 283 283 284 284 285 285 285 285 286 286 286 286 286 286
227 226 227 229 230 228 226 225 225 226 227 226 226 227 230 230 229 228 230 235 238 240 241 242 245 248 248 245 243 241 240 240 241 243 244 245 245 246 246 246 247 248 248 248 249 251 253 254 255 255 255 254 253 253 254 256 258 261 264 266 269 271 272 274 275 276 277 278 280 281 282 283 284 284 285 285 285 286 286 286 287 287 287 286 286 286
224 223 225 227 228 228 227 226 226 227 228 228 227 226 226 228 228 228 228 232 234 236 236 239 245 250 251 249 244 240 238 237 238 239 242 244 245 245 244 244 245 246 247 248 250 252 254 255 255 255 255 254 254 254 255 256 259 262 265 267 269 270 272 273 274 275 277 278 280 281 282 283 284 285 285 286 286 287 287 287 287 287 287 287 286 286
224 223 225 227 228 228 228 227 226 227 227 227 226 225 224 225 226 226 227 229 230 231 231 231 234 246 252 251 246 239 234 232 233 236 239 243 245 245 244 243 242 244 247 248 249 252 254 254 254 255 255 255 255 255 256 257 260 262 264 267 268 270 271 272 273 275 276 278 279 281 282 283 284 285 286 286 287 287 288 288 288 288 288 287 287 287
223 222 223 225 227 227 226 225 226 226 226 225 225 226 225 224 224 224 225 225 226 226 227 228 229 230 239 248 245 239 231 227 227 231 236 241 244 246 245 243 243 244 246 248 250 252 253 253 254 255 255 256 256 256 257 258 260 262 264 266 268 269 270 272 273 274 276 278 279 281 282 284 285 286 286 287 288 288 288 289 289 289 289 288 288 288
223 221 221 223 225 225 225 224 224 223 223 222 223 223 225 225 224 223 223 223 223 223 224 227 230 234 237 242 243 240 231 225 223 225 231 238 243 245 245 243 243 244 246 248 250 252 253 254 255 255 256 256 257 257 258 259 261 263 265 267 268 269 270 271 272 274 275 277 279 280 282 283 285 286 287 288 288 289 289 289 290 290 290 289 289 289
224 223 221 221 222 223 224 224 223 222 221 221 220 221 222 223 222 222 222 223 223 224 225 228 231 234 237 240 241 240 234 228 223 223 228 237 244 245 243 242 242 244 247 249 251 253 254 255 256 256 256 256 257 257 258 259 261 263 265 267 268 269 270 271 272 273 275 277 279 280 281 283 284 286 287 288 288 289 290 290 290 291 291 290 290 289
224 226 224 220 219 222 225 224 222 220 221 220 219 220 221 221 221 221 221 222 223 224 226 229 232 234 236 238 239 237 233 229 224 224 233 243 248 247 245 243 243 245 249 252 254 255 255 256 257 257 257 257 257 258 258 260 261 263 265 267 268 269 269 270 271 273 275 277 278 280 281 283 284 285 287 288 289 289 290 291 291 291 291 291 290 290
224 227 225 220 219 221 223 223 222 220 219 217 216 216 218 219 220 221 221 221 221 223 226 230 233 235 236 237 238 236 233 232 229 230 240 250 253 251 248 246 246 248 251 254 256 257 257 257 258 258 258 258 258 258 259 260 261 263 265 267 268 268 269 270 271 272 274 276 278 279 281 282 283 285 286 288 289 290 291 291 292 292 292 291 291 290
223 227 226 223 220 219 221 222 222 220 217 215 216 218 220 219 219 220 221 221 222 224 227 231 234 236 237 238 239 238 236 235 234 235 241 249 254 254 251 248 247 249 252 255 257 258 259 259 259 259 260 259 259 259 259 260 262 263 265 267 268 268 269 269 270 272 273 275 277 279 280 281 283 284 286 288 289 290 291 292 292 292 292 292 292 291
222 224 225 223 221 220 219 219 218 216 216 216 218 219 220 221 221 221 221 222 222 225 228 231 234 237 238 239 240 240 239 237 235 235 239 246 253 254 253 250 249 251 253 256 258 259 260 260 260 260 260 260 259 259 259 260 262 264 266 267 267 267 268 269 270 271 273 275 277 278 280 281 283 284 286 288 289 290 291 292 292 292 293 293 292 292
221 222 223 222 221 220 218 217 215 215 215 216 218 219 221 222 223 224 224 224 223 223 225 227 230 234 236 237 239 240 239 238 235 233 235 244 251 253 252 249 249 251 255 258 259 260 260 261 261 260 260 260 260 260 260 261 263 264 265 266 266 267 267 268 269 271 272 274 275 277 279 281 283 284 286 287 288 290 291 291 292 293 293 293 293 293
223 222 222 222 222 221 219 218 217 216 217 217 218 218 219 219 220 221 221 221 219 218 218 221 227 231 233 235 237 239 239 238 234 230 230 238 246 251 251 249 248 250 255 258 260 260 259 260 260 260 260 260 261 261 261 262 263 264 265 265 265 266 267 267 269 270 272 273 275 277 279 281 283 284 286 287 288 289 290 291 292 293 294 294 294 293
233 228 225 223 222 222 222 221 221 220 219 219 219 218 217 215 214 214 217 216 215 213 214 218 224 229 231 233 236 238 238 236 232 229 228 232 241 248 250 248 247 249 253 257 259 259 259 259 260 260 260 261 262 262 263 263 264 264 264 264 264 265 266 267 268 269 271 273 275 277 280 281 283 284 285 286 288 289 290 291 293 294 294 295 295 294
250 243 234 228 225 223 223 223 222 222 220 220 220 219 216 211 209 211 217 217 214 212 214 217 220 223 226 232 236 237 237 236 232 228 226 228 236 245 248 248 247 248 252 257 260 260 259 258 259 260 261 262 263 264 264 264 264 263 263 263 263 264 265 266 267 269 271 274 276 278 280 281 282 284 285 286 287 289 290 291 293 294 295 295 295 294
258 256 252 244 236 230 226 225 224 223 221 221 220 218 215 211 209 211 216 215 213 212 216 220 222 225 229 234 237 239 238 236 233 227 223 223 232 243 246 247 246 246 249 257 264 264 261 258 258 259 261 262 263 264 264 264 263 262 261 261 261 262 263 265 267 270 272 274 277 278 280 281 282 283 284 286 287 288 289 291 293 294 295 295 294 293
256 258 259 258 253 246 238 232 228 226 224 222 221 219 216 213 212 213 214 213 211 211 216 220 222 225 228 232 236 239 238 236 232 226 219 219 230 241 243 244 243 242 244 252 263 268 264 262 261 260 261 262 263 263 263 263 262 261 260 260 261 261 262 265 267 270 273 275 277 278 279 281 282 283 284 286 287 288 289 291 292 294 294 294 293 292
251 254 256 258 258 257 254 247 240 233 228 224 222 220 219 217 215 215 215 213 212 213 217 221 223 224 224 223 223 230 234 233 229 223 218 217 227 237 239 240 241 240 238 238 237 292 271 269 267 265 262 263 263 263 263 263 262 262 262 262 263 263 264 266 269 271 273 275 276 278 279 280 282 283 284 285 286 287 289 290 292 293 293 293 292 291
245 247 250 252 254 255 256 255 252 245 236 229 224 222 221 220 218 216 215 214 214 215 219 223 226 226 226 224 225 229 232 232 227 221 216 216 224 233 236 238 240 241 238 234 233 240 264 274 275 273 269 266 265 265 265 264 263 263 263 264 264 265 266 268 270 271 273 274 276 278 279 281 282 283 284 285 286 287 288 289 290 291 291 291 290 289
239 241 244 246 248 250 250 251 250 248 243 236 229 225 223 222 221 219 217 215 214 215 217 221 225 226 227 227 229 232 233 231 226 220 216 215 222 232 237 238 239 240 239 235 235 240 251 261 272 275 273 270 268 266 266 264 264 263 263 263 264 265 267 268 269 270 272 274 276 278 280 281 282 283 284 285 286 287 287 288 288 289 289 289 289 289
234 236 237 238 240 242 244 244 244 243 242 239 235 230 226 225 224 223 220 216 214 214 214 215 218 220 221 223 226 228 229 227 225 223 221 218 224 236 242 241 240 239 239 238 239 243 251 257 264 271 273 272 269 267 265 265 264 263 263 263 263 265 267 268 269 270 271 274 276 278 280 282 283 284 284 285 286 286 287 287 288 288 288 288 289 290
229 230 230 231 232 234 237 238 239 238 237 236 235 234 232 230 230 229 228 225 221 218 216 215 215 215 215 215 218 222 225 225 226 228 229 226 228 237 244 245 243 241 240 242 244 248 254 257 260 264 269 272 271 269 267 266 266 265 264 264 263 264 266 267 268 269 272 274 276 278 279 281 283 284 284 285 285 286 287 288 288 288 288 288 288 288
225 226 227 226 227 229 231 232 233 233 233 233 232 233 233 234 235 237 238 238 236 234 230 227 225 223 222 222 225 228 232 234 235 237 237 234 233 236 243 246 245 243 242 244 247 250 254 258 261 263 265 268 271 272 271 270 269 268 266 265 264 264 265 266 267 269 271 273 275 277 279 281 281 282 283 284 285 286 287 288 288 289 289 288 287 286
225 225 225 224 225 226 228 230 231 231 231 231 230 230 232 234 236 239 241 243 244 243 242 241 239 237 236 236 237 240 243 246 247 246 243 240 237 237 240 244 245 243 241 243 247 250 253 258 261 262 261 262 265 270 273 274 272 269 267 266 265 265 266 266 267 268 269 271 273 276 278 279 280 281 283 284 286 287 288 288 288 288 288 288 287 286
224 225 226 226 226 228 229 231 232 231 230 230 230 230 231 233 235 237 240 242 244 244 244 244 244 244 243 244 244 246 248 251 252 251 248 244 239 237 239 243 245 244 242 243 246 249 251 255 258 259 259 260 263 266 270 273 273 271 269 268 267 266 266 266 266 267 267 269 271 273 276 277 279 281 283 285 287 288 288 289 289 289 290 290 289 288
223 225 227 228 229 229 230 231 231 230 229 229 230 230 230 231 232 234 235 237 239 241 242 243 243 244 244 245 246 247 249 250 252 252 250 247 242 239 239 241 244 245 245 245 246 247 248 250 252 253 256 263 265 266 268 269 270 270 271 271 270 268 266 265 265 264 265 266 269 272 274 276 278 280 282 284 286 287 287 288 289 290 291 292 292 291
222 225 227 229 229 229 229 229 229 229 229 230 230 229 228 228 228 229 231 232 234 237 240 243 244 245 245 245 246 246 248 249 251 251 250 248 244 241 239 239 242 244 246 246 245 246 248 250 252 254 258 261 265 267 269 269 268 269 271 272 271 268 266 265 264 264 264 265 268 271 274 276 278 280 281 282 283 284 285 287 289 290 290 291 291 292
221 224 227 229 230 230 229 229 229 229 229 229 228 226 225 223 223 224 226 228 231 234 238 241 242 244 245 246 246 247 248 248 249 249 248 247 245 243 240 240 241 244 246 247 247 247 248 249 252 255 257 259 263 266 268 269 269 269 269 268 268 269 269 268 266 265 265 266 268 270 273 276 278 279 280 282 282 283 284 285 287 288 289 288 287 288
220 223 226 228 229 229 229 228 228 227 227 225 224 222 221 220 220 220 222 224 227 230 233 234 236 239 243 246 248 248 249 249 249 248 248 247 246 245 243 242 242 244 246 248 249 250 250 250 252 254 257 259 262 265 267 269 268 267 266 265 267 270 272 270 267 265 265 266 268 270 272 274 276 278 280 282 283 284 284 285 285 285 286 286 285 284
220 223 225 227 227 227 227 226 224 223 221 220 220 221 221 221 220 220 220 222 224 226 227 227 229 232 237 243 247 249 250 251 251 251 249 249 248 247 245 245 244 245 245 247 250 252 253 252 253 254 257 259 261 263 266 268 268 266 264 263 264 267 270 270 268 267 265 266 268 270 271 274 276 278 281 282 284 284 285 285 284 283 283 282 283 282
220 222 224 224 224 223 222 221 220 218 216 216 218 221 222 221 220 219 219 220 221 222 223 223 224 227 232 238 244 247 250 251 253 253 252 251 250 249 248 247 247 246 245 244 246 251 254 256 256 257 259 260 261 262 263 265 265 265 263 262 261 260 261 265 268 270 269 268 269 270 272 274 277 280 282 283 283 284 284 284 284 283 282 282 281 281
219 220 222 222 220 218 216 216 216 216 216 217 219 220 221 219 218 217 216 217 219 220 220 219 220 223 229 235 239 243 247 249 251 252 253 252 251 250 249 248 248 247 246 245 244 247 250 254 257 259 260 260 260 259 260 262 263 263 263 262 261 259 259 263 266 267 268 269 270 272 273 276 279 281 283 283 283 283 284 284 284 284 283 282 282 281
219 219 220 220 218 217 215 215 215 214 215 217 219 220 220 218 215 214 215 216 217 218 219 217 216 218 225 231 235 239 243 247 249 250 250 250 250 249 248 247 247 246 245 245 245 246 247 250 254 258 260 260 258 257 256 257 259 261 262 262 262 262 262 263 264 264 265 268 270 272 275 277 279 280 281 282 283 284 284 283 283 283 283 283 283 283
218 218 219 219 218 217 215 214 212 212 213 216 219 219 218 215 213 212 213 215 216 217 217 216 216 218 224 229 232 236 241 246 249 250 250 249 248 248 247 247 247 246 246 246 246 246 246 248 250 252 254 255 257 257 256 256 256 257 259 260 261 261 262 263 264 265 266 267 269 271 274 276 278 278 279 281 283 284 284 284 283 282 283 283 284 284
220 220 220 220 218 216 214 212 210 210 213 216 218 218 216 213 210 209 211 213 214 214 214 213 214 218 224 229 234 237 241 246 249 250 249 248 248 248 249 249 249 249 249 250 250 250 250 249 248 247 246 247 251 256 257 257 256 256 257 259 260 261 262 264 265 266 265 266 267 269 271 272 273 275 278 281 283 283 284 285 285 284 284 284 284 284
223 222 222 220 218 215 213 210 209 210 213 216 217 217 216 213 211 211 211 211 212 212 212 211 213 218 225 231 235 239 242 245 248 249 249 249 250 251 253 254 254 255 255 255 255 255 255 254 252 249 247 245 247 252 256 258 257 257 257 259 259 261 263 265 266 265 265 265 266 267 268 268 269 271 274 278 280 282 284 285 286 287 286 286 285 284
223 221 220 218 216 215 213 211 210 211 214 217 217 217 215 213 211 210 210 209 209 209 211 212 214 219 226 231 235 238 239 242 245 247 249 250 253 255 258 259 260 261 262 261 261 260 260 259 257 255 252 248 247 249 253 256 258 258 257 257 258 259 261 263 264 265 265 265 265 265 265 266 267 268 270 273 277 281 284 286 287 288 288 288 288 287
218 217 215 214 213 212 211 210 210 211 214 216 217 217 214 210 209 208 207 206 206 208 211 213 216 221 226 231 234 236 237 239 242 246 250 253 256 257 259 260 261 262 264 265 264 263 262 263 263 261 258 253 249 246 248 252 255 256 256 256 256 257 258 260 262 263 263 263 262 263 263 264 265 266 267 271 275 280 284 286 287 288 290 291 292 291
Height
741 741 741 742 742 741 741 741 742 743 743 744 745 746 747 748 749 749 750 750 751 751 752 752 753 753 753 754 754 755 755 756 756 757 757 757 757 758 758 758 758 759 759 759 759 759 759 759 759 759 759 760 760 760 760 760 759 759 759 759 759 758 758 757 757 757 756 756 755 755 754 754 753 752 752 751 751 750 749 748 748 747 746 745 744 744
739 739 739 739 739 739 739 739 740 741 741 742 743 744 745 746 747 747 748 748 748 749 750 750 750 751 751 751 752 752 752 753 753 754 754 755 755 755 755 755 756 756 756 756 756 756 757 757 757 757 757 757 757 757 757 757 757 757 756 756 756 756 756 755 755 754 754 753 753 752 752 751 750 750 749 749 748 747 746 746 745 744 743 742 742 741
737 737 737 737 737 737 737 737 738 738 739 740 741 742 743 743 744 745 745 745 746 747 747 747 748 748 748 748 749 750 750 750 751 751 751 752 752 752 753 753 753 753 753 753 754 754 754 754 754 754 754 755 755 755 755 755 754 754 754 754 754 754 753 753 752 752 751 751 750 750 749 749 748 747 747 746 745 745 744 743 742 741 740 740 739 738
735 734 734 735 735 735 735 735 736 736 737 738 739 740 740 741 741 742 742 743 744 744 745 745 745 746 746 746 746 747 747 747 748 748 748 749 749 750 750 750 750 750 751 751 751 751 752 752 752 752 752 752 752 752 752 752 752 752 752 752 751 751 751 750 750 749 749 748 748 747 747 746 745 745 744 743 743 742 741 740 740 739 738 737 736 735
732 732 732 732 733 732 732 733 734 735 735 736 737 737 738 738 739 739 740 741 741 741 742 742 743 743 743 743 743 743 744 745 745 745 746 746 746 747 747 747 747 748 748 748 748 749 749 749 749 749 749 749 749 749 749 749 749 749 749 749 749 749 748 748 747 747 746 746 745 745 744 743 743 742 741 741 740 739 739 738 737 736 735 734 733 732
729 730 730 730 730 730 731 731 732 733 734 734 735 735 736 736 737 737 737 738 738 738 739 739 740 740 740 740 740 740 741 742 742 742 743 743 744 744 744 744 745 745 745 746 746 746 746 746 746 747 747 747 747 747 747 747 747 747 747 746 746 746 746 745 745 744 744 743 743 742 741 741 740 739 739 738 737 737 736 735 734 733 732 732 730 730
727 727 728 728 728 728 729 729 730 731 732 732 733 733 733 734 734 734 734 735 735 736 736 736 737 737 737 737 737 738 738 739 739 740 740 740 741 741 741 742 742 742 743 743 743 743 744 744 744 744 744 744 744 744 744 744 744 744 744 744 744 743 743 743 742 742 741 740 740 739 739 738 737 737 736 735 735 734 733 732 731 730 730 729 727 727
725 725 725 726 726 726 727 727 727 728 729 730 731 731 731 732 732 732 732 732 732 733 733 733 734 734 734 734 734 735 735 735 736 736 737 737 737 738 738 739 739 740 740 740 740 741 741 741 741 741 741 741 741 742 742 742 742 742 742 741 741 741 740 740 740 739 738 738 737 736 736 735 734 734 733 732 732 731 730 729 728 728 727 726 725 724
723 723 723 723 724 724 725 725 725 726 727 727 728 729 729 729 729 729 730 730 730 730 730 731 731 730 730 731 731 732 732 732 733 733 733 733 734 734 735 735 736 736 737 737 738 738 738 738 738 739 739 739 739 739 739 739 739 739 739 739 739 738 738 737 737 736 736 735 734 734 733 732 732 731 730 730 729 728 727 726 725 725 724 723 722 721
721 721 721 721 722 722 723 722 722 723 725 725 725 726 726 727 727 727 727 727 727 727 728 728 728 727 727 728 729 729 730 730 730 730 731 731 731 731 732 732 733 733 734 734 735 735 736 736 736 736 736 736 736 736 736 737 737 736 736 736 736 735 735 735 734 733 733 732 731 731 730 729 729 728 727 727 726 725 725 724 723 722 721 720 719 718
718 719 719 719 719 720 720 720 720 721 722 723 723 723 724 724 725 725 725 724 724 725 725 725 725 725 725 725 726 727 727 727 727 728 728 728 729 730 730 730 730 731 731 732 732 733 733 733 733 733 733 734 734 734 734 734 734 734 734 733 733 733 732 732 731 731 730 729 728 728 727 727 726 725 725 724 723 722 721 721 720 719 718 717 716 715
716 717 717 717 717 717 717 718 718 720 720 721 721 721 720 721 722 722 722 722 721 722 722 722 722 723 723 723 724 724 725 725 725 725 725 726 726 727 727 728 728 729 729 730 730 730 730 730 731 731 731 731 731 731 731 731 731 731 731 731 730 730 730 729 728 728 727 726 726 725 724 724 723 722 722 721 720 719 718 717 717 715 714 713 712 711
713 714 714 714 714 714 715 715 716 717 717 717 717 717 716 717 719 720 720 719 719 719 720 720 720 720 720 721 722 722 722 723 723 723 723 723 724 724 725 725 725 726 726 727 727 727 727 728 728 728 728 728 728 728 728 728 728 728 728 728 728 727 727 726 725 725 724 723 723 722 721 721 720 719 719 718 717 716 715 714 713 712 711 710 709 708
711 711 712 712 711 711 712 712 713 713 713 713 712 713 713 715 717 717 717 717 717 717 718 719 718 718 718 719 719 720 720 720 721 721 721 721 721 721 722 722 722 723 723 724 724 724 724 725 725 725 725 725 725 725 725 726 726 726 725 725 725 724 724 723 722 722 721 720 720 719 718 718 717 716 716 715 714 713 712 711 710 709 708 707 706 705
707 708 708 708 707 707 708 709 709 709 709 709 710 711 712 714 714 715 715 715 715 715 717 717 716 716 716 716 717 717 718 718 719 719 718 718 718 719 720 720 720 720 721 721 721 720 721 722 722 721 721 722 722 722 722 722 722 722 722 722 722 721 721 720 719 719 718 717 717 716 715 715 714 713 712 712 711 710 709 708 707 706 705 704 702 701
704 705 705 704 704 704 704 705 706 706 706 707 709 710 711 711 712 712 712 712 713 714 715 715 715 714 713 713 714 715 716 716 716 716 716 715 715 716 717 718 718 718 718 718 718 718 718 718 718 718 718 718 719 719 720 720 720 720 719 719 719 718 718 717 716 716 715 715 714 713 713 712 711 710 709 709 708 707 706 705 703 702 701 700 699 698
700 701 701 700 700 701 701 702 703 704 704 705 706 707 708 708 709 709 710 710 711 712 712 712 713 712 711 710 710 711 712 713 713 713 714 713 713 713 715 715 715 715 715 715 715 715 715 715 715 715 715 715 716 716 717 717 717 717 716 716 716 715 715 714 713 713 712 712 711 710 710 709 708 707 706 705 704 703 702 701 700 699 698 697 695 694
697 697 697 697 697 698 699 700 701 702 702 703 704 705 705 706 706 707 707 708 709 709 709 710 710 709 709 708 707 708 709 710 710 711 711 710 710 711 712 713 713 712 712 712 712 712 713 712 712 712 712 713 713 714 714 714 714 714 714 713 713 712 712 711 710 710 709 709 708 707 707 706 705 704 703 702 701 700 699 698 697 695 694 693 692 691
692 693 693 693 694 695 696 697 698 699 700 701 702 703 703 704 704 705 705 705 706 706 706 707 707 706 706 705 705 706 707 707 708 708 709 708 708 709 710 710 710 710 710 709 709 710 710 710 710 710 710 710 711 711 711 711 711 711 711 710 710 709 709 708 707 707 706 705 705 704 704 703 702 701 700 699 698 697 696 695 693 692 691 690 688 687
688 689 689 690 691 692 693 694 695 696 697 698 700 700 701 701 702 702 702 703 703 703 704 704 704 703 703 703 703 704 705 706 706 706 706 706 706 707 708 708 708 707 707 706 707 707 707 707 707 707 707 708 708 708 708 708 708 708 708 707 707 706 706 705 705 704 703 702 702 701 700 700 699 698 697 696 695 694 693 691 690 689 687 686 685 684
684 685 685 687 688 690 690 691 692 693 695 696 697 698 698 699 699 700 700 700 701 701 702 701 701 700 701 701 702 702 704 704 704 704 704 704 704 704 705 706 706 705 704 704 704 704 705 705 704 704 704 705 705 705 705 705 705 705 705 704 704 703 702 702 701 701 700 699 699 698 697 697 696 695 694 693 692 691 689 688 687 685 684 683 681 680
680 680 681 683 685 685 686 687 689 690 692 694 694 695 695 696 696 696 697 697 698 698 698 698 697 697 698 699 699 700 701 702 702 702 703 702 701 701 702 703 703 702 702 701 701 702 702 702 702 701 701 701 702 702 702 702 702 702 701 701 700 700 700 699 698 698 697 696 696 695 694 694 693 692 691 690 689 687 686 685 683 682 681 679 678 677
675 676 678 680 681 681 682 684 686 687 689 690 690 691 691 692 692 692 693 694 694 694 694 694 695 696 697 697 697 698 699 699 700 700 701 700 698 698 700 701 701 700 699 698 698 699 699 699 699 698 698 698 699 699 699 699 699 699 698 698 697 697 696 696 695 695 694 693 693 692 691 691 690 689 688 687 686 684 683 682 680 679 677 676 675 673
671 672 674 676 677 678 679 681 682 684 685 686 686 687 687 688 688 689 690 691 691 692 692 693 694 695 695 695 695 696 696 697 698 699 699 697 696 695 697 698 698 697 695 695 696 697 697 696 696 695 695 695 696 696 696 696 696 695 695 695 694 694 693 693 692 692 691 690 690 689 688 687 687 686 685 684 682 681 680 678 677 676 674 673 671 670
667 669 671 672 674 675 676 677 679 680 681 682 683 684 685 685 686 687 688 689 690 691 692 692 693 692 692 693 693 693 693 694 695 696 696 695 693 693 694 695 695 694 693 693 693 694 694 693 692 692 692 692 692 692 693 693 693 692 692 692 691 691 690 690 689 688 688 687 687 686 685 684 684 682 681 680 679 678 677 675 674 672 671 670 668 666
665 666 667 669 671 672 673 674 675 676 677 678 679 680 682 683 685 686 687 688 688 689 690 690 690 689 690 690 690 690 690 691 692 692 693 692 691 690 691 692 692 692 690 690 691 691 691 690 690 689 689 689 689 689 690 690 689 689 689 688 688 687 687 687 686 685 685 684 684 683 682 681 680 679 678 677 676 675 674 672 671 670 668 666 665 663
664 665 665 666 668 669 670 671 672 674 675 676 677 678 679 681 683 684 684 684 685 686 687 687 686 686 687 687 686 686 687 687 688 689 689 690 689 688 687 689 690 689 688 688 688 688 688 687 687 686 686 686 686 686 686 686 686 686 686 685 685 684 684 684 683 682 682 681 681 680 679 678 677 676 675 674 673 672 671 669 668 667 665 663 662 659
663 664 664 664 665 666 667 668 669 670 672 673 674 675 677 678 679 680 679 680 682 683 683 683 683 683 683 683 683 683 684 684 685 685 686 687 687 685 684 686 687 687 687 686 685 685 685 685 684 684 683 683 683 683 683 683 683 683 682 682 682 681 681 680 680 680 679 678 678 677 676 675 674 673 672 671 670 669 668 666 665 664 662 660 658 656
660 661 662 663 663 664 664 665 666 667 669 670 671 672 673 674 674 674 675 677 679 680 680 679 680 680 680 680 680 680 681 681 681 682 684 685 684 682 682 684 684 685 685 684 683 682 682 681 681 681 680 680 680 680 679 680 680 679 679 679 679 678 678 677 677 676 676 675 674 674 673 672 671 670 669 668 667 666 665 664 663 661 660 657 655 653
658 658 659 660 661 662 663 663 664 665 666 667 668 669 670 669 669 670 671 674 675 676 676 676 676 677 677 678 678 678 677 677 678 680 681 682 681 679 680 681 682 682 683 683 682 680 679 678 678 678 678 677 677 677 676 676 676 676 676 676 675 675 675 674 674 673 673 672 671 670 670 669 668 667 665 665 664 663 662 661 660 659 657 655 652 650
656 656 657 657 658 660 661 661 662 663 663 664 665 666 666 666 665 666 668 670 671 672 672 673 673 674 675 676 676 675 673 673 675 677 678 678 677 677 678 679 679 679 680 681 681 679 676 674 674 675 675 675 675 674 674 674 674 673 673 673 672 672 671 671 671 670 669 669 668 667 666 665 664 663 662 661 660 660 659 658 657 656 654 652 650 647
654 655 655 655 656 657 657 659 660 660 661 661 662 662 663 663 663 664 665 666 667 668 669 670 670 671 671 672 672 670 670 670 672 674 675 675 674 674 675 676 677 677 677 678 678 677 675 672 671 672 673 673 673 672 672 672 671 671 670 670 669 668 668 668 668 667 666 665 665 664 663 662 661 660 659 658 657 656 655 655 654 653 652 649 647 644
652 652 653 653 654 654 655 656 657 658 659 659 659 659 660 660 661 661 662 662 663 664 665 666 667 667 668 668 668 667 667 669 670 671 672 672 672 672 673 674 674 675 675 675 676 675 674 672 670 670 670 671 670 670 670 669 669 668 668 667 666 665 665 665 665 664 663 662 661 660 659 659 658 657 656 655 654 653 652 652 651 650 649 647 644 641
649 650 651 651 652 652 652 653 654 655 656 656 657 657 657 658 658 659 659 660 660 661 661 662 663 664 665 665 665 665 666 667 668 669 669 670 670 670 671 672 672 673 673 673 673 673 672 670 669 669 668 667 667 667 667 666 666 666 665 665 664 662 662 662 662 661 660 659 658 657 656 655 654 653 652 651 650 649 649 648 647 647 646 644 642 639
647 647 648 649 649 650 650 651 651 652 653 653 654 655 655 655 656 656 657 657 658 658 659 659 660 661 662 662 663 663 663 665 666 667 667 667 667 667 668 669 670 670 671 670 670 670 669 667 667 667 666 665 664 663 664 664 663 663 662 661 661 660 659 659 658 658 657 656 655 654 653 652 651 650 649 648 647 646 645 644 643 643 642 641 640 638
644 645 645 646 647 647 648 648 649 649 650 650 651 652 652 653 653 654 654 655 655 656 657 657 658 658 659 659 660 660 661 662 664 665 665 664 665 665 666 666 667 667 668 667 667 667 666 665 664 664 664 663 661 660 660 660 661 660 659 658 658 657 656 656 656 655 654 653 652 651 650 649 648 647 645 644 644 643 642 641 639 639 637 637 636 634
641 642 642 643 644 645 645 645 646 646 647 647 647 648 649 650 651 652 652 652 653 654 655 655 656 656 657 657 657 657 658 659 661 661 662 662 662 663 663 663 663 665 665 665 665 664 664 663 662 661 661 660 659 657 657 657 657 657 656 656 655 655 654 653 653 653 652 651 649 648 647 646 645 644 642 641 640 639 638 637 635 634 633 632 631 629
639 639 640 640 641 642 642 642 643 643 643 644 645 645 646 647 648 649 650 650 650 651 652 653 653 653 654 654 655 655 655 656 657 658 658 659 660 660 660 660 661 661 662 662 662 662 662 661 660 659 658 657 656 655 655 655 654 654 653 653 653 652 651 650 650 650 649 648 647 645 645 644 643 641 640 638 637 636 634 632 631 630 629 628 626 624
636 636 637 637 638 639 639 639 640 640 640 641 642 642 643 644 645 646 647 647 648 649 649 650 650 651 651 652 652 653 653 653 654 654 655 656 657 657 658 658 658 658 659 660 660 660 660 659 658 656 655 654 653 652 652 652 652 651 650 650 649 648 648 647 647 647 646 645 644 643 642 641 640 639 637 636 634 633 631 629 628 627 626 624 622 619
633 633 634 634 635 636 636 636 636 637 638 638 639 640 641 642 642 643 644 645 646 646 647 647 648 648 649 649 650 650 651 651 651 652 652 653 654 655 655 656 656 656 656 657 657 657 657 656 655 654 653 652 651 650 649 649 649 649 649 648 646 644 644 644 644 643 643 642 641 640 639 638 637 636 634 633 632 630 629 627 625 623 622 622 619 616
630 630 631 632 632 633 633 633 634 634 635 636 637 638 639 639 640 641 642 642 643 644 644 645 646 646 647 647 647 648 648 648 649 649 650 651 651 652 653 653 653 654 654 654 654 654 654 653 652 651 650 650 649 647 647 646 646 646 647 645 643 641 640 641 641 640 640 639 638 638 637 635 634 633 631 630 629 627 626 625 623 621 619 618 617 615
626 627 628 629 629 630 630 631 632 633 633 634 635 636 636 637 637 638 639 640 641 641 642 643 644 645 645 645 645 645 645 646 646 647 648 648 649 650 650 650 651 651 652 652 651 651 651 650 650 649 648 647 647 645 643 642 643 643 643 642 640 639 638 637 637 637 637 636 635 635 634 633 631 629 628 627 625 623 622 621 620 618 617 615 613 612
622 623 624 625 626 627 628 629 630 631 631 632 632 633 633 634 635 636 637 637 638 639 640 641 642 643 643 643 643 643 643 643 644 645 645 646 646 647 647 648 648 649 649 649 649 648 648 648 647 646 645 645 645 643 641 639 639 639 639 639 639 638 635 633 633 634 634 633 632 632 631 630 628 627 625 623 622 620 619 617 616 615 614 612 610 608
619 620 621 622 623 625 626 627 628 628 629 629 630 630 631 632 633 634 635 635 636 637 638 639 640 641 641 641 641 641 641 641 642 642 643 643 644 644 645 645 645 646 646 647 646 645 645 645 644 643 643 643 642 641 639 637 636 636 636 636 636 635 633 630 630 631 631 630 629 629 628 627 625 624 622 620 618 617 615 614 612 610 609 608 607 605
617 618 619 620 621 622 623 624 624 625 626 627 627 628 629 629 631 632 632 633 634 635 636 637 638 639 639 639 639 639 639 640 640 640 640 641 641 642 642 642 642 643 643 643 643 643 643 642 641 640 641 641 640 638 636 635 634 633 632 632 632 631 629 628 628 628 627 627 626 625 624 624 623 622 619 617 614 613 611 610 608 607 605 604 603 601
615 616 616 617 618 619 620 620 621 622 623 624 625 625 626 627 628 629 630 631 632 633 634 634 636 636 636 636 636 637 637 638 638 638 638 639 639 639 639 640 640 640 640 640 640 640 640 639 638 638 638 638 636 634 633 632 631 630 629 629 629 628 627 626 625 625 624 624 623 622 621 621 621 619 617 614 611 609 607 606 605 603 601 600 599 597
612 613 614 614 615 616 616 617 619 620 621 621 622 623 624 625 626 627 628 629 629 630 631 632 633 633 633 633 634 635 635 635 636 636 636 637 637 637 637 637 637 637 638 637 637 637 636 636 636 636 636 634 632 630 629 629 629 627 626 626 626 625 624 622 622 622 622 621 620 619 619 619 618 616 613 611 608 606 603 602 600 599 598 597 595 593
610 611 611 612 612 613 614 615 616 617 618 619 619 620 622 622 623 624 625 626 627 628 629 630 630 631 631 631 632 632 633 633 634 634 634 634 635 635 635 635 635 635 635 635 635 634 633 633 632 632 632 631 629 627 625 625 625 625 624 623 623 622 621 619 618 619 619 618 617 617 617 617 615 613 611 608 605 602 599 597 596 595 594 593 592 589
608 608 609 609 610 611 612 612 613 614 615 616 617 619 619 620 621 622 623 624 625 626 627 627 628 628 629 629 630 630 631 631 632 632 632 632 633 633 633 633 633 633 633 633 632 632 631 630 629 629 628 628 627 624 623 622 622 622 621 621 620 619 618 616 615 616 616 615 615 614 614 613 612 611 610 607 603 599 596 594 592 590 589 589 588 586
605 606 607 607 608 609 609 610 612 612 613 614 615 616 617 618 619 620 621 622 622 623 624 625 625 626 627 627 628 628 629 629 629 629 630 630 631 631 631 631 632 632 631 631 630 629 628 627 625 624 624 624 624 622 621 619 619 619 618 617 617 616 615 614 613 612 613 612 612 611 611 610 609 608 608 605 602 597 594 591 588 586 585 585 584 582
603 604 604 605 606 607 608 609 610 610 611 612 613 614 615 616 617 618 619 620 621 621 622 623 623 624 624 625 626 626 627 627 627 627 627 628 628 629 629 629 630 630 629 629 628 627 626 624 622 619 618 619 620 620 619 617 616 616 615 614 613 613 612 611 610 610 610 609 609 608 608 607 606 605 605 603 600 596 592 588 584 582 580 580 580 578